Showing default

COSMOS 2596, 65589

Orbit data source: Space-Track

COSMOS 2596, 65589 is a payload satellite owned by Mozhaiskiy (CIS) in MEO that was launched on Sat, 13 Sep 2025 UTC via a SOYUZ-2-1B launch vehicle from the Plesetsk Missile And Space Complex (PKMTR). Payload-class satellites include a variety of spacecraft equipped with specific instruments for various scientific and technological missions. These include communications satellites like Starlink; space stations such as the ISS; scientific satellites like the Hubble; Earth observation satellites from companies like Planet Labs, Umbra, and HawkEye 360; GPS; miniature CubeSats for education and research; and military/defense satellites.

Loading next visibility...
Identifier
65589, 2025-206A
Orbit
MEO
Country
Flag of CISCIS
Related business
Manufacturer
NPO PM
Mission
Operational Civil Technology
Bus & Motor
CUBESAT?, Unknown motor
Mass
~20 kg wet, ~20 kg dry
Launch date (UTC)
2025-09-13 (9 months ago)
Launch vehicle
SOYUZ-2-1B
Launch site
Plesetsk Missile And Space Complex (PKMTR)
Object type
Payload
Rocket body
Debris
Shape & HBR
Poly, 14.5 m
Radar Cross Section
1.143 m², Large (>1 m²)

Expand to show TLE details & history
Last TLE update: 1 day ago

TLE from 1 day ago
0 COSMOS 2596
1 65589U 25206A   26165.87322262 -.00000055  00000-0  00000+0 0  9990
2 65589  64.6399 314.9126 0065677 305.1606  54.2088  2.14901177  5903
Epoch: 2026-06-14T20:57Z
TLE epoch observation values (Epoch: 2026-06-14T20:57:26.434Z)
Latitude
0.00004°
Longitude
97.36746°
Altitude
18,891.228 km
Speed
3.979 km/s
True Right ascension
20h 59m 34s
True Declination
0° 00' 00"
Sunlit
Object was in daylight at epoch
Visualization orbit readout
Latitude
Unknown
Longitude
Unknown
Altitude
Unknown
Speed
Unknown
Apparent Right ascension
Unknown
Apparent Declination
Unknown
Sunlit
N/A
Visualization observer readout
Local Sidereal Time
13:39:21
Azimuth
Unknown
Elevation
Unknown
Doppler factor
Unknown
Orbital elements
Apogee altitude
19,153.533 km
Perigee altitude
18,820.352 km
Semi-major axis
25,365.079 km
Eccentricity
0.00657
Inclination
64.6399°
RAAN
314.9126°
Arg. of periapsis
305.1606°
True anomaly
54.82221°
Mean anomaly
54.2088°
Eccentric anomaly
54.51521°
Mean motion
0.53727 °/min
Orbital period
670.06 mins
BSTAR
0
Loading maneuver chart data...
Computing Atmospheric mass density...
Loading historical data...
Loading historical data...
Loading historical data...
Loading historical data...
Loading historical data...
Loading historical data...
Loading historical data...
Other satellites on launch #206 in the year 2025 (2025-09-13 UTC)

Documentation

Showing up to 5 results
|